Year,Month,Day,Hour,Minute,Value (Times are PST for temperature in C)
2013,05,06,00,00,16.50
2013,05,06,00,01,16.50
2013,05,06,00,02,16.50
2013,05,06,00,03,16.50
2013,05,06,00,04,16.40
2013,05,06,00,05,16.30
2013,05,06,00,06,16.30
2013,05,06,00,07,16.20
2013,05,06,00,08,16.10
2013,05,06,00,09,16.00
2013,05,06,00,10,16.00
2013,05,06,00,11,15.90
2013,05,06,00,12,15.90
2013,05,06,00,13,15.80
2013,05,06,00,14,15.80
2013,05,06,00,15,15.70
2013,05,06,00,16,15.60
2013,05,06,00,17,15.60
2013,05,06,00,18,15.50
2013,05,06,00,19,15.40
2013,05,06,00,20,15.30
2013,05,06,00,21,15.30
2013,05,06,00,22,15.20
2013,05,06,00,23,15.10
2013,05,06,00,24,15.10
2013,05,06,00,25,15.00
2013,05,06,00,26,15.00
2013,05,06,00,27,14.90
2013,05,06,00,28,14.90
2013,05,06,00,29,14.80
2013,05,06,00,30,14.80
2013,05,06,00,31,14.80
2013,05,06,00,32,14.70
2013,05,06,00,33,14.70
2013,05,06,00,34,14.60
2013,05,06,00,35,14.60
2013,05,06,00,36,14.60
2013,05,06,00,37,14.60
2013,05,06,00,38,14.50
2013,05,06,00,39,14.50
2013,05,06,00,40,14.50
2013,05,06,00,41,14.50
2013,05,06,00,42,14.40
2013,05,06,00,43,14.40
2013,05,06,00,44,14.40
2013,05,06,00,45,14.40
2013,05,06,00,46,14.40
2013,05,06,00,47,14.30
2013,05,06,00,48,14.30
2013,05,06,00,49,14.30
2013,05,06,00,50,14.30
2013,05,06,00,51,14.30
2013,05,06,00,52,14.30
2013,05,06,00,53,14.30
2013,05,06,00,54,14.30
2013,05,06,00,55,14.30
2013,05,06,00,56,14.30
2013,05,06,00,57,14.20
2013,05,06,00,58,14.20
2013,05,06,00,59,14.20
2013,05,06,01,00,14.20
2013,05,06,01,01,14.20
2013,05,06,01,02,14.10
2013,05,06,01,03,14.10
2013,05,06,01,04,14.00
2013,05,06,01,05,14.00
2013,05,06,01,06,14.00
2013,05,06,01,07,14.00
2013,05,06,01,08,14.10
2013,05,06,01,09,14.10
2013,05,06,01,10,14.20
2013,05,06,01,11,14.30
2013,05,06,01,12,14.30
2013,05,06,01,13,14.40
2013,05,06,01,14,14.40
2013,05,06,01,15,14.40
2013,05,06,01,16,14.50
2013,05,06,01,17,14.50
2013,05,06,01,18,14.50
2013,05,06,01,19,14.50
2013,05,06,01,20,14.40
2013,05,06,01,21,14.40
2013,05,06,01,22,14.40
2013,05,06,01,23,14.40
2013,05,06,01,24,14.40
2013,05,06,01,25,14.30
2013,05,06,01,26,14.30
2013,05,06,01,27,14.30
2013,05,06,01,28,14.30
2013,05,06,01,29,14.30
2013,05,06,01,30,14.30
2013,05,06,01,31,14.30
2013,05,06,01,32,14.30
2013,05,06,01,33,14.30
2013,05,06,01,34,14.30
2013,05,06,01,35,14.30
2013,05,06,01,36,14.30
2013,05,06,01,37,14.30
2013,05,06,01,38,14.30
2013,05,06,01,39,14.20
2013,05,06,01,40,14.20
2013,05,06,01,41,14.10
2013,05,06,01,42,14.10
2013,05,06,01,43,14.10
2013,05,06,01,44,14.10
2013,05,06,01,45,14.00
2013,05,06,01,46,14.00
2013,05,06,01,47,14.00
2013,05,06,01,48,14.00
2013,05,06,01,49,13.90
2013,05,06,01,50,13.90
2013,05,06,01,51,13.90
2013,05,06,01,52,13.90
2013,05,06,01,53,13.80
2013,05,06,01,54,13.80
2013,05,06,01,55,13.80
2013,05,06,01,56,13.80
2013,05,06,01,57,13.80
2013,05,06,01,58,13.70
2013,05,06,01,59,13.70
2013,05,06,02,00,13.60
2013,05,06,02,01,13.50
2013,05,06,02,02,13.50
2013,05,06,02,03,13.40
2013,05,06,02,04,13.40
2013,05,06,02,05,13.40
2013,05,06,02,06,13.40
2013,05,06,02,07,13.30
2013,05,06,02,08,13.30
2013,05,06,02,09,13.30
2013,05,06,02,10,13.20
2013,05,06,02,11,13.10
2013,05,06,02,12,13.10
2013,05,06,02,13,13.00
2013,05,06,02,14,12.90
2013,05,06,02,15,12.90
2013,05,06,02,16,12.80
2013,05,06,02,17,12.80
2013,05,06,02,18,12.80
2013,05,06,02,19,12.80
2013,05,06,02,20,12.90
2013,05,06,02,21,12.90
2013,05,06,02,22,13.00
2013,05,06,02,23,13.10
2013,05,06,02,24,13.20
2013,05,06,02,25,13.30
2013,05,06,02,26,13.30
2013,05,06,02,27,13.40
2013,05,06,02,28,13.40
2013,05,06,02,29,13.40
2013,05,06,02,30,13.40
2013,05,06,02,31,13.50
2013,05,06,02,32,13.50
2013,05,06,02,33,13.50
2013,05,06,02,34,13.50
2013,05,06,02,35,13.40
2013,05,06,02,36,13.40
2013,05,06,02,37,13.40
2013,05,06,02,38,13.30
2013,05,06,02,39,13.30
2013,05,06,02,40,13.30
2013,05,06,02,41,13.30
2013,05,06,02,42,13.30
2013,05,06,02,43,13.30
2013,05,06,02,44,13.20
2013,05,06,02,45,13.20
2013,05,06,02,46,13.20
2013,05,06,02,47,13.10
2013,05,06,02,48,13.10
2013,05,06,02,49,13.00
2013,05,06,02,50,12.90
2013,05,06,02,51,12.90
2013,05,06,02,52,12.90
2013,05,06,02,53,13.00
2013,05,06,02,54,13.00
2013,05,06,02,55,13.10
2013,05,06,02,56,13.20
2013,05,06,02,57,13.20
2013,05,06,02,58,13.30
2013,05,06,02,59,13.30
2013,05,06,03,00,13.30
2013,05,06,03,01,13.30
2013,05,06,03,02,13.30
2013,05,06,03,03,13.30
2013,05,06,03,04,13.30
2013,05,06,03,05,13.30
2013,05,06,03,06,13.30
2013,05,06,03,07,13.30
2013,05,06,03,08,13.20
2013,05,06,03,09,13.20
2013,05,06,03,10,13.20
2013,05,06,03,11,13.20
2013,05,06,03,12,13.20
2013,05,06,03,13,13.20
2013,05,06,03,14,13.20
2013,05,06,03,15,13.30
2013,05,06,03,16,13.30
2013,05,06,03,17,13.30
2013,05,06,03,18,13.40
2013,05,06,03,19,13.40
2013,05,06,03,20,13.50
2013,05,06,03,21,13.60
2013,05,06,03,22,13.60
2013,05,06,03,23,13.60
2013,05,06,03,24,13.60
2013,05,06,03,25,13.60
2013,05,06,03,26,13.60
2013,05,06,03,27,13.60
2013,05,06,03,28,13.60
2013,05,06,03,29,13.60
2013,05,06,03,30,13.60
2013,05,06,03,31,13.60
2013,05,06,03,32,13.60
2013,05,06,03,33,13.60
2013,05,06,03,34,13.60
2013,05,06,03,35,13.60
2013,05,06,03,36,13.60
2013,05,06,03,37,13.50
2013,05,06,03,38,13.50
2013,05,06,03,39,13.40
2013,05,06,03,40,13.40
2013,05,06,03,41,13.40
2013,05,06,03,42,13.40
2013,05,06,03,43,13.30
2013,05,06,03,44,13.30
2013,05,06,03,45,13.30
2013,05,06,03,46,13.30
2013,05,06,03,47,13.30
2013,05,06,03,48,13.20
2013,05,06,03,49,13.20
2013,05,06,03,50,13.20
2013,05,06,03,51,13.10
2013,05,06,03,52,13.20
2013,05,06,03,53,13.20
2013,05,06,03,54,13.20
2013,05,06,03,55,13.20
2013,05,06,03,56,13.20
2013,05,06,03,57,13.20
2013,05,06,03,58,13.10
2013,05,06,03,59,13.10
2013,05,06,04,00,13.00
2013,05,06,04,01,13.00
2013,05,06,04,02,13.00
2013,05,06,04,03,12.90
2013,05,06,04,04,12.90
2013,05,06,04,05,12.90
2013,05,06,04,06,12.80
2013,05,06,04,07,12.80
2013,05,06,04,08,12.80
2013,05,06,04,09,12.80
2013,05,06,04,10,12.70
2013,05,06,04,11,12.70
2013,05,06,04,12,12.70
2013,05,06,04,13,12.60
2013,05,06,04,14,12.60
2013,05,06,04,15,12.60
2013,05,06,04,16,12.50
2013,05,06,04,17,12.50
2013,05,06,04,18,12.50
2013,05,06,04,19,12.50
2013,05,06,04,20,12.50
2013,05,06,04,21,12.60
2013,05,06,04,22,12.60
2013,05,06,04,23,12.50
2013,05,06,04,24,12.50
2013,05,06,04,25,12.50
2013,05,06,04,26,12.50
2013,05,06,04,27,12.40
2013,05,06,04,28,12.40
2013,05,06,04,29,12.40
2013,05,06,04,30,12.30
2013,05,06,04,31,12.40
2013,05,06,04,32,12.50
2013,05,06,04,33,12.70
2013,05,06,04,34,12.80
2013,05,06,04,35,12.90
2013,05,06,04,36,13.00
2013,05,06,04,37,13.10
2013,05,06,04,38,13.30
2013,05,06,04,39,13.40
2013,05,06,04,40,13.60
2013,05,06,04,41,13.70
2013,05,06,04,42,13.80
2013,05,06,04,43,13.90
2013,05,06,04,44,14.00
2013,05,06,04,45,14.10
2013,05,06,04,46,14.20
2013,05,06,04,47,14.30
2013,05,06,04,48,14.30
2013,05,06,04,49,14.30
2013,05,06,04,50,14.30
2013,05,06,04,51,14.30
2013,05,06,04,52,14.30
2013,05,06,04,53,14.30
2013,05,06,04,54,14.30
2013,05,06,04,55,14.30
2013,05,06,04,56,14.30
2013,05,06,04,57,14.30
2013,05,06,04,58,14.30
2013,05,06,04,59,14.40
2013,05,06,05,00,14.50
2013,05,06,05,01,14.60
2013,05,06,05,02,14.70
2013,05,06,05,03,14.80
2013,05,06,05,04,14.80
2013,05,06,05,05,14.80
2013,05,06,05,06,14.80
2013,05,06,05,07,14.80
2013,05,06,05,08,14.80
2013,05,06,05,09,14.70
2013,05,06,05,10,14.70
2013,05,06,05,11,14.70
2013,05,06,05,12,14.70
2013,05,06,05,13,14.60
2013,05,06,05,14,14.60
2013,05,06,05,15,14.50
2013,05,06,05,16,14.40
2013,05,06,05,17,14.30
2013,05,06,05,18,14.20
2013,05,06,05,19,14.10
2013,05,06,05,20,14.00
2013,05,06,05,21,13.90
2013,05,06,05,22,13.80
2013,05,06,05,23,13.70
2013,05,06,05,24,13.70
2013,05,06,05,25,13.60
2013,05,06,05,26,13.40
2013,05,06,05,27,13.40
2013,05,06,05,28,13.30
2013,05,06,05,29,13.20
2013,05,06,05,30,13.20
2013,05,06,05,31,13.10
2013,05,06,05,32,13.10
2013,05,06,05,33,13.00
2013,05,06,05,34,12.90
2013,05,06,05,35,12.90
2013,05,06,05,36,12.80
2013,05,06,05,37,12.80
2013,05,06,05,38,12.80
2013,05,06,05,39,12.70
2013,05,06,05,40,12.70
2013,05,06,05,41,12.70
2013,05,06,05,42,12.70
2013,05,06,05,43,12.70
2013,05,06,05,44,12.80
2013,05,06,05,45,12.80
2013,05,06,05,46,12.90
2013,05,06,05,47,12.90
2013,05,06,05,48,12.90
2013,05,06,05,49,12.90
2013,05,06,05,50,12.90
2013,05,06,05,51,12.90
2013,05,06,05,52,12.90
2013,05,06,05,53,12.90
2013,05,06,05,54,12.90
2013,05,06,05,55,12.80
2013,05,06,05,56,12.80
2013,05,06,05,57,12.90
2013,05,06,05,58,12.90
2013,05,06,05,59,12.90
2013,05,06,06,00,12.90
2013,05,06,06,01,12.90
2013,05,06,06,02,12.90
2013,05,06,06,03,12.90
2013,05,06,06,04,13.00
2013,05,06,06,05,13.00
2013,05,06,06,06,13.00
2013,05,06,06,07,13.00
2013,05,06,06,08,13.10
2013,05,06,06,09,13.00
2013,05,06,06,10,13.00
2013,05,06,06,11,12.90
2013,05,06,06,12,12.80
2013,05,06,06,13,12.80
2013,05,06,06,14,12.70
2013,05,06,06,15,12.70
2013,05,06,06,16,12.70
2013,05,06,06,17,12.70
2013,05,06,06,18,12.60
2013,05,06,06,19,12.60
2013,05,06,06,20,12.60
2013,05,06,06,21,12.60
2013,05,06,06,22,12.60
2013,05,06,06,23,12.60
2013,05,06,06,24,12.50
2013,05,06,06,25,12.50
2013,05,06,06,26,12.50
2013,05,06,06,27,12.50
2013,05,06,06,28,12.40
2013,05,06,06,29,12.40
2013,05,06,06,30,12.40
2013,05,06,06,31,12.40
2013,05,06,06,32,12.40
2013,05,06,06,33,12.40
2013,05,06,06,34,12.30
2013,05,06,06,35,12.40
2013,05,06,06,36,12.40
2013,05,06,06,37,12.50
2013,05,06,06,38,12.70
2013,05,06,06,39,12.80
2013,05,06,06,40,13.00
2013,05,06,06,41,13.20
2013,05,06,06,42,13.20
2013,05,06,06,43,13.20
2013,05,06,06,44,13.20
2013,05,06,06,45,13.30
2013,05,06,06,46,13.30
2013,05,06,06,47,13.30
2013,05,06,06,48,13.30
2013,05,06,06,49,13.50
2013,05,06,06,50,13.60
2013,05,06,06,51,13.80
2013,05,06,06,52,13.90
2013,05,06,06,53,14.00
2013,05,06,06,54,14.10
2013,05,06,06,55,14.20
2013,05,06,06,56,14.30
2013,05,06,06,57,14.30
2013,05,06,06,58,14.40
2013,05,06,06,59,14.40
2013,05,06,07,00,14.50
2013,05,06,07,01,14.50
2013,05,06,07,02,14.60
2013,05,06,07,03,14.70
2013,05,06,07,04,14.70
2013,05,06,07,05,14.80
2013,05,06,07,06,14.90
2013,05,06,07,07,14.90
2013,05,06,07,08,15.00
2013,05,06,07,09,15.10
2013,05,06,07,10,15.20
2013,05,06,07,11,15.20
2013,05,06,07,12,15.30
2013,05,06,07,13,15.30
2013,05,06,07,14,15.30
2013,05,06,07,15,15.40
2013,05,06,07,16,15.40
2013,05,06,07,17,15.50
2013,05,06,07,18,15.60
2013,05,06,07,19,15.60
2013,05,06,07,20,15.70
2013,05,06,07,21,15.70
2013,05,06,07,22,15.70
2013,05,06,07,23,15.70
2013,05,06,07,24,15.60
2013,05,06,07,25,15.60
2013,05,06,07,26,15.60
2013,05,06,07,27,15.60
2013,05,06,07,28,15.60
2013,05,06,07,29,15.70
2013,05,06,07,30,15.70
2013,05,06,07,31,15.80
2013,05,06,07,32,15.80
2013,05,06,07,33,15.90
2013,05,06,07,34,16.00
2013,05,06,07,35,16.10
2013,05,06,07,36,16.20
2013,05,06,07,37,16.20
2013,05,06,07,38,16.30
2013,05,06,07,39,16.40
2013,05,06,07,40,16.50
2013,05,06,07,41,16.50
2013,05,06,07,42,16.60
2013,05,06,07,43,16.50
2013,05,06,07,44,16.50
2013,05,06,07,45,16.50
2013,05,06,07,46,16.50
2013,05,06,07,47,16.60
2013,05,06,07,48,16.60
2013,05,06,07,49,16.60
2013,05,06,07,50,16.60
2013,05,06,07,51,16.60
2013,05,06,07,52,16.60
2013,05,06,07,53,16.60
2013,05,06,07,54,16.70
2013,05,06,07,55,16.70
2013,05,06,07,56,16.70
2013,05,06,07,57,16.70
2013,05,06,07,58,16.80
2013,05,06,07,59,16.80
2013,05,06,08,00,16.80
2013,05,06,08,01,16.90
2013,05,06,08,02,16.90
2013,05,06,08,03,17.00
2013,05,06,08,04,17.10
2013,05,06,08,05,17.10
2013,05,06,08,06,17.30
2013,05,06,08,07,17.30
2013,05,06,08,08,17.40
2013,05,06,08,09,17.50
2013,05,06,08,10,17.50
2013,05,06,08,11,17.70
2013,05,06,08,12,17.80
2013,05,06,08,13,17.90
2013,05,06,08,14,17.90
2013,05,06,08,15,18.10
2013,05,06,08,16,18.20
2013,05,06,08,17,18.30
2013,05,06,08,18,18.40
2013,05,06,08,19,18.50
2013,05,06,08,20,18.50
2013,05,06,08,21,18.60
2013,05,06,08,22,18.70
2013,05,06,08,23,18.70
2013,05,06,08,24,18.80
2013,05,06,08,25,18.90
2013,05,06,08,26,19.00
2013,05,06,08,27,19.10
2013,05,06,08,28,19.10
2013,05,06,08,29,19.20
2013,05,06,08,30,19.20
2013,05,06,08,31,19.20
2013,05,06,08,32,19.30
2013,05,06,08,33,19.40
2013,05,06,08,34,19.40
2013,05,06,08,35,19.50
2013,05,06,08,36,19.60
2013,05,06,08,37,19.60
2013,05,06,08,38,19.60
2013,05,06,08,39,19.60
2013,05,06,08,40,19.50
2013,05,06,08,41,19.50
2013,05,06,08,42,19.40
2013,05,06,08,43,19.40
2013,05,06,08,44,19.40
2013,05,06,08,45,19.50
2013,05,06,08,46,19.50
2013,05,06,08,47,19.50
2013,05,06,08,48,19.60
2013,05,06,08,49,19.60
2013,05,06,08,50,19.60
2013,05,06,08,51,19.60
2013,05,06,08,52,19.60
2013,05,06,08,53,19.50
2013,05,06,08,54,19.50
2013,05,06,08,55,19.50
2013,05,06,08,56,19.50
2013,05,06,08,57,19.40
2013,05,06,08,58,19.40
2013,05,06,08,59,19.50
2013,05,06,09,00,19.50
2013,05,06,09,01,19.60
2013,05,06,09,02,19.60
2013,05,06,09,03,19.60
2013,05,06,09,04,19.70
2013,05,06,09,05,19.80
2013,05,06,09,06,19.80
2013,05,06,09,07,19.90
2013,05,06,09,08,20.00
2013,05,06,09,09,20.10
2013,05,06,09,10,20.10
2013,05,06,09,11,20.20
2013,05,06,09,12,20.20
2013,05,06,09,13,20.30
2013,05,06,09,14,20.30
2013,05,06,09,15,20.30
2013,05,06,09,16,20.20
2013,05,06,09,17,20.20
2013,05,06,09,18,20.10
2013,05,06,09,19,20.10
2013,05,06,09,20,20.10
2013,05,06,09,21,20.00
2013,05,06,09,22,20.00
2013,05,06,09,23,19.90
2013,05,06,09,24,20.00
2013,05,06,09,25,20.00
2013,05,06,09,26,20.10
2013,05,06,09,27,20.10
2013,05,06,09,28,20.20
2013,05,06,09,29,20.20
2013,05,06,09,30,20.30
2013,05,06,09,31,20.40
2013,05,06,09,32,20.60
2013,05,06,09,33,20.80
2013,05,06,09,34,20.90
2013,05,06,09,35,21.00
2013,05,06,09,36,21.10
2013,05,06,09,37,21.20
2013,05,06,09,38,21.30
2013,05,06,09,39,21.40
2013,05,06,09,40,21.50
2013,05,06,09,41,21.70
2013,05,06,09,42,21.80
2013,05,06,09,43,21.90
2013,05,06,09,44,21.90
2013,05,06,09,45,21.90
2013,05,06,09,46,21.90
2013,05,06,09,47,21.90
2013,05,06,09,48,22.00
2013,05,06,09,49,22.10
2013,05,06,09,50,22.10
2013,05,06,09,51,22.10
2013,05,06,09,52,22.10
2013,05,06,09,53,22.10
2013,05,06,09,54,22.10
2013,05,06,09,55,22.00
2013,05,06,09,56,22.00
2013,05,06,09,57,22.00
2013,05,06,09,58,21.90
2013,05,06,09,59,21.90
2013,05,06,10,00,21.80
2013,05,06,10,01,21.80
2013,05,06,10,02,21.70
2013,05,06,10,03,21.80
2013,05,06,10,04,21.80
2013,05,06,10,05,21.80
2013,05,06,10,06,21.80
2013,05,06,10,07,21.70
2013,05,06,10,08,21.70
2013,05,06,10,09,21.70
2013,05,06,10,10,21.70
2013,05,06,10,11,21.70
2013,05,06,10,12,21.80
2013,05,06,10,13,22.00
2013,05,06,10,14,22.00
2013,05,06,10,15,22.10
2013,05,06,10,16,22.20
2013,05,06,10,17,22.30
2013,05,06,10,18,22.40
2013,05,06,10,19,22.50
2013,05,06,10,20,22.70
2013,05,06,10,21,22.80
2013,05,06,10,22,22.80
2013,05,06,10,23,22.80
2013,05,06,10,24,22.80
2013,05,06,10,25,22.80
2013,05,06,10,26,22.80
2013,05,06,10,27,23.00
2013,05,06,10,28,23.00
2013,05,06,10,29,23.20
2013,05,06,10,30,23.30
2013,05,06,10,31,23.40
2013,05,06,10,32,23.50
2013,05,06,10,33,23.60
2013,05,06,10,34,23.70
2013,05,06,10,35,23.90
2013,05,06,10,36,24.00
2013,05,06,10,37,24.00
2013,05,06,10,38,24.10
2013,05,06,10,39,24.10
2013,05,06,10,40,24.10
2013,05,06,10,41,24.20
2013,05,06,10,42,24.20
2013,05,06,10,43,24.20
2013,05,06,10,44,24.10
2013,05,06,10,45,24.10
2013,05,06,10,46,24.00
2013,05,06,10,47,23.90
2013,05,06,10,48,23.70
2013,05,06,10,49,23.60
2013,05,06,10,50,23.50
2013,05,06,10,51,23.40
2013,05,06,10,52,23.30
2013,05,06,10,53,23.30
2013,05,06,10,54,23.20
2013,05,06,10,55,23.20
2013,05,06,10,56,23.20
2013,05,06,10,57,23.20
2013,05,06,10,58,23.30
2013,05,06,10,59,23.40
2013,05,06,11,00,23.40
2013,05,06,11,01,23.50
2013,05,06,11,02,23.60
2013,05,06,11,03,23.50
2013,05,06,11,04,23.40
2013,05,06,11,05,23.40
2013,05,06,11,06,23.30
2013,05,06,11,07,23.30
2013,05,06,11,08,23.30
2013,05,06,11,09,23.30
2013,05,06,11,10,23.40
2013,05,06,11,11,23.40
2013,05,06,11,12,23.50
2013,05,06,11,13,23.50
2013,05,06,11,14,23.60
2013,05,06,11,15,23.70
2013,05,06,11,16,23.80
2013,05,06,11,17,23.90
2013,05,06,11,18,23.90
2013,05,06,11,19,24.00
2013,05,06,11,20,24.00
2013,05,06,11,21,24.00
2013,05,06,11,22,23.90
2013,05,06,11,23,23.90
2013,05,06,11,24,23.80
2013,05,06,11,25,23.80
2013,05,06,11,26,23.80
2013,05,06,11,27,23.80
2013,05,06,11,28,23.80
2013,05,06,11,29,23.90
2013,05,06,11,30,23.90
2013,05,06,11,31,23.90
2013,05,06,11,32,23.90
2013,05,06,11,33,23.90
2013,05,06,11,34,23.90
2013,05,06,11,35,23.80
2013,05,06,11,36,23.70
2013,05,06,11,37,23.60
2013,05,06,11,38,23.60
2013,05,06,11,39,23.60
2013,05,06,11,40,23.60
2013,05,06,11,41,23.60
2013,05,06,11,42,23.60
2013,05,06,11,43,23.50
2013,05,06,11,44,23.50
2013,05,06,11,45,23.50
2013,05,06,11,46,23.50
2013,05,06,11,47,23.50
2013,05,06,11,48,23.50
2013,05,06,11,49,23.40
2013,05,06,11,50,23.40
2013,05,06,11,51,23.30
2013,05,06,11,52,23.30
2013,05,06,11,53,23.20
2013,05,06,11,54,23.00
2013,05,06,11,55,23.00
2013,05,06,11,56,22.90
2013,05,06,11,57,22.90
2013,05,06,11,58,22.90
2013,05,06,11,59,22.90
2013,05,06,12,00,22.90
2013,05,06,12,01,23.00
2013,05,06,12,02,23.10
2013,05,06,12,03,23.10
2013,05,06,12,04,23.10
2013,05,06,12,05,23.20
2013,05,06,12,06,23.20
2013,05,06,12,07,23.20
2013,05,06,12,08,23.00
2013,05,06,12,09,22.90
2013,05,06,12,10,22.80
2013,05,06,12,11,22.70
2013,05,06,12,12,22.60
2013,05,06,12,13,22.60
2013,05,06,12,14,22.50
2013,05,06,12,15,22.50
2013,05,06,12,16,22.40
2013,05,06,12,17,22.40
2013,05,06,12,18,22.40
2013,05,06,12,19,22.40
2013,05,06,12,20,22.40
2013,05,06,12,21,22.40
2013,05,06,12,22,22.40
2013,05,06,12,23,22.40
2013,05,06,12,24,22.50
2013,05,06,12,25,22.60
2013,05,06,12,26,22.70
2013,05,06,12,27,22.80
2013,05,06,12,28,22.80
2013,05,06,12,29,22.80
2013,05,06,12,30,22.70
2013,05,06,12,31,22.60
2013,05,06,12,32,22.60
2013,05,06,12,33,22.60
2013,05,06,12,34,22.70
2013,05,06,12,35,22.70
2013,05,06,12,36,22.80
2013,05,06,12,37,22.90
2013,05,06,12,38,23.10
2013,05,06,12,39,23.10
2013,05,06,12,40,23.20
2013,05,06,12,41,23.10
2013,05,06,12,42,23.00
2013,05,06,12,43,22.90
2013,05,06,12,44,22.90
2013,05,06,12,45,22.90
2013,05,06,12,46,22.90
2013,05,06,12,47,22.90
2013,05,06,12,48,22.90
2013,05,06,12,49,22.90
2013,05,06,12,50,22.90
2013,05,06,12,51,22.80
2013,05,06,12,52,22.80
2013,05,06,12,53,22.70
2013,05,06,12,54,22.70
2013,05,06,12,55,22.70
2013,05,06,12,56,22.70
2013,05,06,12,57,22.80
2013,05,06,12,58,22.70
2013,05,06,12,59,22.70
2013,05,06,13,00,22.70
2013,05,06,13,01,22.70
2013,05,06,13,02,22.60
2013,05,06,13,03,22.50
2013,05,06,13,04,22.40
2013,05,06,13,05,22.30
2013,05,06,13,06,22.30
2013,05,06,13,07,22.30
2013,05,06,13,08,22.30
2013,05,06,13,09,22.30
2013,05,06,13,10,22.30
2013,05,06,13,11,22.30
2013,05,06,13,12,22.40
2013,05,06,13,13,22.50
2013,05,06,13,14,22.60
2013,05,06,13,15,22.60
2013,05,06,13,16,22.70
2013,05,06,13,17,22.90
2013,05,06,13,18,23.00
2013,05,06,13,19,23.10
2013,05,06,13,20,23.10
2013,05,06,13,21,23.00
2013,05,06,13,22,22.90
2013,05,06,13,23,22.80
2013,05,06,13,24,22.70
2013,05,06,13,25,22.60
2013,05,06,13,26,22.50
2013,05,06,13,27,22.30
2013,05,06,13,28,22.20
2013,05,06,13,29,22.00
2013,05,06,13,30,21.90
2013,05,06,13,31,21.80
2013,05,06,13,32,21.80
2013,05,06,13,33,21.80
2013,05,06,13,34,21.80
2013,05,06,13,35,21.80
2013,05,06,13,36,21.80
2013,05,06,13,37,21.80
2013,05,06,13,38,22.00
2013,05,06,13,39,22.10
2013,05,06,13,40,22.20
2013,05,06,13,41,22.20
2013,05,06,13,42,22.20
2013,05,06,13,43,22.10
2013,05,06,13,44,22.00
2013,05,06,13,45,21.90
2013,05,06,13,46,21.90
2013,05,06,13,47,21.80
2013,05,06,13,48,21.80
2013,05,06,13,49,21.80
2013,05,06,13,50,21.80
2013,05,06,13,51,21.70
2013,05,06,13,52,21.80
2013,05,06,13,53,21.80
2013,05,06,13,54,21.70
2013,05,06,13,55,21.70
2013,05,06,13,56,21.70
2013,05,06,13,57,21.70
2013,05,06,13,58,21.70
2013,05,06,13,59,21.70
2013,05,06,14,00,21.70
2013,05,06,14,01,21.80
2013,05,06,14,02,21.80
2013,05,06,14,03,21.90
2013,05,06,14,04,22.00
2013,05,06,14,05,22.10
2013,05,06,14,06,22.00
2013,05,06,14,07,21.90
2013,05,06,14,08,21.70
2013,05,06,14,09,21.50
2013,05,06,14,10,21.50
2013,05,06,14,11,21.40
2013,05,06,14,12,21.40
2013,05,06,14,13,21.40
2013,05,06,14,14,21.40
2013,05,06,14,15,21.50
2013,05,06,14,16,21.60
2013,05,06,14,17,21.70
2013,05,06,14,18,21.80
2013,05,06,14,19,21.80
2013,05,06,14,20,21.80
2013,05,06,14,21,21.80
2013,05,06,14,22,21.80
2013,05,06,14,23,21.80
2013,05,06,14,24,21.70
2013,05,06,14,25,21.60
2013,05,06,14,26,21.50
2013,05,06,14,27,21.50
2013,05,06,14,28,21.40
2013,05,06,14,29,21.50
2013,05,06,14,30,21.50
2013,05,06,14,31,21.50
2013,05,06,14,32,21.50
2013,05,06,14,33,21.50
2013,05,06,14,34,21.50
2013,05,06,14,35,21.50
2013,05,06,14,36,21.40
2013,05,06,14,37,21.40
2013,05,06,14,38,21.40
2013,05,06,14,39,21.40
2013,05,06,14,40,21.40
2013,05,06,14,41,21.30
2013,05,06,14,42,21.30
2013,05,06,14,43,21.40
2013,05,06,14,44,21.40
2013,05,06,14,45,21.20
2013,05,06,14,46,21.00
2013,05,06,14,47,20.80
2013,05,06,14,48,20.70
2013,05,06,14,49,20.70
2013,05,06,14,50,20.80
2013,05,06,14,51,20.70
2013,05,06,14,52,20.70
2013,05,06,14,53,20.60
2013,05,06,14,54,20.60
2013,05,06,14,55,20.60
2013,05,06,14,56,20.60
2013,05,06,14,57,20.50
2013,05,06,14,58,20.40
2013,05,06,14,59,20.40
2013,05,06,15,00,20.30
2013,05,06,15,01,20.30
2013,05,06,15,02,20.30
2013,05,06,15,03,20.40
2013,05,06,15,04,20.50
2013,05,06,15,05,20.60
2013,05,06,15,06,20.70
2013,05,06,15,07,20.80
2013,05,06,15,08,20.90
2013,05,06,15,09,20.90
2013,05,06,15,10,21.10
2013,05,06,15,11,21.00
2013,05,06,15,12,20.90
2013,05,06,15,13,20.70
2013,05,06,15,14,20.70
2013,05,06,15,15,20.70
2013,05,06,15,16,20.80
2013,05,06,15,17,21.00
2013,05,06,15,18,21.30
2013,05,06,15,19,21.60
2013,05,06,15,20,21.80
2013,05,06,15,21,22.10
2013,05,06,15,22,22.20
2013,05,06,15,23,22.40
2013,05,06,15,24,22.60
2013,05,06,15,25,22.70
2013,05,06,15,26,22.80
2013,05,06,15,27,22.90
2013,05,06,15,28,23.00
2013,05,06,15,29,23.00
2013,05,06,15,30,22.90
2013,05,06,15,31,22.70
2013,05,06,15,32,22.00
2013,05,06,15,33,21.30
2013,05,06,15,34,20.70
2013,05,06,15,35,20.30
2013,05,06,15,36,20.10
2013,05,06,15,37,20.10
2013,05,06,15,38,20.10
2013,05,06,15,39,20.10
2013,05,06,15,40,20.20
2013,05,06,15,41,20.30
2013,05,06,15,42,20.30
2013,05,06,15,43,20.40
2013,05,06,15,44,20.40
2013,05,06,15,45,20.50
2013,05,06,15,46,20.60
2013,05,06,15,47,20.60
2013,05,06,15,48,20.70
2013,05,06,15,49,20.60
2013,05,06,15,50,20.50
2013,05,06,15,51,20.60
2013,05,06,15,52,20.60
2013,05,06,15,53,20.70
2013,05,06,15,54,20.70
2013,05,06,15,55,20.60
2013,05,06,15,56,20.50
2013,05,06,15,57,20.40
2013,05,06,15,58,20.20
2013,05,06,15,59,20.10
2013,05,06,16,00,20.00
2013,05,06,16,01,19.70
2013,05,06,16,02,19.60
2013,05,06,16,03,19.60
2013,05,06,16,04,19.60
2013,05,06,16,05,19.70
2013,05,06,16,06,19.70
2013,05,06,16,07,19.80
2013,05,06,16,08,19.80
2013,05,06,16,09,19.90
2013,05,06,16,10,19.90
2013,05,06,16,11,19.90
2013,05,06,16,12,20.00
2013,05,06,16,13,20.00
2013,05,06,16,14,20.00
2013,05,06,16,15,19.90
2013,05,06,16,16,19.70
2013,05,06,16,17,19.60
2013,05,06,16,18,19.40
2013,05,06,16,19,19.30
2013,05,06,16,20,19.20
2013,05,06,16,21,19.30
2013,05,06,16,22,19.30
2013,05,06,16,23,19.20
2013,05,06,16,24,19.00
2013,05,06,16,25,18.70
2013,05,06,16,26,18.30
2013,05,06,16,27,17.90
2013,05,06,16,28,17.70
2013,05,06,16,29,17.60
2013,05,06,16,30,17.50
2013,05,06,16,31,17.40
2013,05,06,16,32,17.30
2013,05,06,16,33,17.10
2013,05,06,16,34,17.00
2013,05,06,16,35,16.80
2013,05,06,16,36,16.70
2013,05,06,16,37,16.50
2013,05,06,16,38,16.20
2013,05,06,16,39,15.80
2013,05,06,16,40,15.50
2013,05,06,16,41,15.20
2013,05,06,16,42,15.00
2013,05,06,16,43,14.80
2013,05,06,16,44,14.70
2013,05,06,16,45,14.60
2013,05,06,16,46,14.40
2013,05,06,16,47,14.20
2013,05,06,16,48,14.00
2013,05,06,16,49,14.00
2013,05,06,16,50,14.00
2013,05,06,16,51,14.10
2013,05,06,16,52,14.10
2013,05,06,16,53,14.10
2013,05,06,16,54,14.10
2013,05,06,16,55,14.10
2013,05,06,16,56,14.10
2013,05,06,16,57,14.10
2013,05,06,16,58,14.20
2013,05,06,16,59,14.20
2013,05,06,17,00,14.20
2013,05,06,17,01,14.20
2013,05,06,17,02,14.20
2013,05,06,17,03,14.10
2013,05,06,17,04,14.00
2013,05,06,17,05,14.00
2013,05,06,17,06,13.90
2013,05,06,17,07,14.00
2013,05,06,17,08,14.10
2013,05,06,17,09,14.10
2013,05,06,17,10,14.10
2013,05,06,17,11,14.10
2013,05,06,17,12,14.20
2013,05,06,17,13,14.20
2013,05,06,17,14,14.30
2013,05,06,17,15,14.30
2013,05,06,17,16,14.40
2013,05,06,17,17,14.40
2013,05,06,17,18,14.40
2013,05,06,17,19,14.40